Wind_Speed
6 6 7 8 9 10 10 9 9 8 8 9 10 11 11 11 12 12 12 12 12 12 11 11 11 12 13 13 16 16 13 10
6 5 4 5 6 8 8 8 8 9 9 10 11 13 14 14 14 14 14 14 14 14 13 13 13 13 15 16 17 17 16 14
8 6 5 6 8 7 7 6 6 7 9 10 10 12 14 15 15 15 17 17 18 17 17 17 16 16 17 18 19 21 22 21
9 8 7 6 5 4 3 4 3 5 7 9 9 11 14 14 15 16 18 19 20 21 21 21 20 20 20 21 23 24 24 25
10 7 5 8 10 7 3 1 2 5 4 6 8 10 12 13 14 16 17 20 22 24 25 25 25 25 25 25 26 27 29 29
17 15 11 8 6 9 8 8 7 4 5 2 3 6 9 11 13 16 18 19 20 24 27 28 30 30 28 30 29 31 33 34
22 20 20 19 16 14 15 15 15 17 14 11 6 7 9 7 7 6 10 9 14 21 24 25 28 30 30 30 35 36 35 36
23 23 23 24 25 22 21 20 19 17 16 14 11 10 8 8 7 8 8 10 11 11 13 21 26 28 32 32 35 37 39 38
25 24 22 24 24 25 23 22 21 21 20 17 15 12 11 10 10 11 13 13 14 14 12 12 19 26 31 31 34 35 37 38
23 23 23 24 24 24 22 20 19 18 16 14 14 14 14 13 12 12 13 14 15 15 15 16 15 15 20 28 33 34 35 37
22 21 22 23 23 21 18 16 17 16 15 16 18 18 18 17 15 14 14 14 14 15 16 15 18 21 21 22 22 29 33 34
18 18 18 17 17 17 15 14 15 15 16 17 18 20 20 19 16 15 16 16 16 17 18 16 14 17 24 25 20 23 25 31
15 15 14 12 15 15 15 15 12 17 18 20 22 22 21 19 17 16 17 16 16 15 16 14 14 16 15 22 26 30 25 25
13 13 11 12 14 14 12 12 10 15 20 22 23 23 21 17 15 17 17 16 15 14 13 11 10 11 9 14 4 13 4 12
11 10 9 9 10 11 11 8 11 13 20 23 22 20 16 11 11 16 15 15 14 12 10 9 8 9 12 4 3 2 14 21
9 7 7 7 7 9 11 11 11 13 16 17 17 17 15 10 8 12 11 11 11 9 8 10 10 9 13 8 13 18 5 9
4 2 4 7 4 7 10 11 12 13 13 13 15 16 18 18 15 12 12 13 12 9 11 12 9 8 10 12 18 18 19 8
12 6 2 4 4 4 7 10 14 15 14 13 13 15 16 15 14 13 14 14 13 11 11 11 12 11 10 12 11 8 12 11
11 11 10 7 2 4 7 12 14 13 11 10 10 10 12 14 14 14 13 12 12 12 12 12 10 11 13 15 16 18 19 20
12 11 10 5 7 6 8 10 10 8 6 7 7 8 7 10 11 13 16 19 18 17 15 14 12 11 12 12 15 16 18 19
Wind_Direction
148 167 186 201 208 214 219 226 230 230 232 234 234 233 232 231 234 234 234 234 231 229 226 221 216 218 220 207 203 209 210 209
152 169 198 219 227 231 237 244 249 254 255 252 250 247 243 240 242 245 248 247 246 246 244 238 231 227 229 226 217 215 220 219
152 174 206 236 239 238 242 254 269 270 270 269 266 265 259 252 250 251 255 255 256 255 254 251 245 238 235 234 231 226 224 223
159 169 179 188 209 231 243 258 276 303 298 303 299 297 293 282 268 259 261 262 261 260 259 258 256 252 244 238 236 235 232 230
142 157 153 172 169 165 175 165 4 11 330 315 314 309 309 298 297 291 283 274 268 265 262 259 256 255 254 245 242 241 239 235
119 128 127 109 138 166 162 159 148 119 75 16 328 344 324 312 299 302 301 293 286 278 270 266 263 261 256 258 252 248 245 242
104 112 112 108 107 115 117 119 111 103 94 82 81 84 59 52 49 32 25 352 309 295 290 280 273 268 259 254 260 253 251 249
107 106 104 105 106 106 103 100 99 99 93 86 85 68 64 34 25 359 339 339 324 308 306 289 283 276 267 266 259 257 259 254
102 101 103 101 100 98 97 90 85 78 70 63 56 46 41 18 24 358 351 347 337 331 325 302 294 276 269 271 269 260 260 260
107 103 100 98 93 89 85 80 72 66 59 50 39 25 13 1 354 342 337 336 336 338 337 332 320 323 287 263 263 261 257 255
107 104 98 95 91 83 74 68 59 55 45 34 25 16 6 359 354 348 340 335 337 339 330 330 325 322 324 310 297 260 259 261
111 105 101 93 82 72 65 59 55 41 30 20 9 2 357 352 348 348 346 343 340 342 344 335 321 322 321 316 306 296 281 258
114 110 98 81 65 58 56 57 48 32 22 11 1 355 348 342 336 337 347 345 344 343 348 348 337 340 333 329 317 310 291 278
119 102 84 62 51 58 59 50 30 15 6 1 353 347 342 336 332 336 338 336 335 339 343 341 331 333 326 311 332 326 346 331
125 108 90 69 57 60 55 46 28 0 1 358 359 357 350 340 326 333 334 336 334 336 343 349 328 334 332 283 320 283 329 307
130 121 92 68 44 34 38 33 20 1 355 1 9 14 15 8 341 333 342 350 343 344 359 352 349 331 339 322 293 296 305 301
143 166 68 31 357 15 24 14 1 355 355 3 14 23 29 31 24 22 5 358 2 353 329 325 327 319 315 310 311 307 291 267
186 202 195 225 260 356 11 1 356 354 354 356 2 14 18 22 12 12 1 356 352 337 326 318 315 311 306 303 289 284 293 290
187 200 201 208 268 336 350 352 347 346 345 348 347 357 8 3 5 3 1 357 354 349 340 330 323 313 309 304 300 295 284 279
217 218 228 249 269 302 331 335 333 326 319 321 327 334 351 357 0 3 4 0 353 346 341 337 332 331 326 315 307 299 301 290
Height
804 807 809 811 813 814 816 818 819 820 821 822 823 824 825 827 828 829 830 832 832 833 834 835 836 837 837 838 839 841 842 843
803 806 808 811 812 814 815 817 818 820 821 822 823 824 824 825 827 829 830 831 832 833 834 836 836 837 837 837 837 838 840 841
802 804 806 809 810 812 814 816 819 820 821 822 822 824 824 824 825 827 828 830 831 832 832 833 834 834 835 835 836 835 835 836
799 800 801 804 808 810 813 815 817 819 821 822 822 823 825 825 824 825 826 828 828 829 830 831 833 832 833 834 832 832 833 833
798 800 801 800 801 806 809 812 814 816 816 819 820 821 824 824 825 825 824 826 826 827 827 828 829 829 830 831 831 830 829 830
798 799 799 802 803 803 805 807 809 812 815 814 815 819 820 821 823 822 821 823 823 823 824 824 824 825 826 826 827 827 826 826
800 800 797 798 800 804 806 806 807 810 812 811 814 816 818 818 818 819 819 819 819 819 819 819 819 820 820 821 820 821 821 822
802 802 802 801 801 805 807 809 810 809 806 809 811 812 813 814 814 816 816 815 815 815 815 814 814 813 812 813 812 813 815 816
805 806 805 803 805 807 809 811 812 810 811 812 812 812 810 814 810 813 813 812 813 812 809 808 808 807 806 805 805 806 805 808
808 809 807 807 809 810 811 811 812 812 813 813 812 812 813 812 811 811 810 810 811 809 807 806 804 802 800 798 798 798 798 798
811 812 813 812 810 810 813 814 815 815 815 814 814 814 813 811 809 808 807 807 805 804 803 802 801 799 797 794 793 790 790 792
815 814 815 815 814 812 813 814 815 816 816 814 813 812 811 810 808 805 804 802 801 800 799 797 797 796 793 790 788 787 787 783
816 816 816 816 813 812 814 815 817 817 816 814 813 810 808 806 804 802 800 798 798 797 796 794 793 793 789 785 781 779 778 778
815 815 816 817 814 812 812 814 815 815 814 813 811 808 805 803 801 799 797 795 794 794 793 793 792 791 790 786 780 776 774 776
818 818 817 818 817 814 813 814 814 813 811 810 808 805 803 801 799 797 795 793 792 791 791 791 791 790 789 789 784 781 777 774
821 821 818 818 818 816 813 812 810 809 809 807 806 804 802 798 796 795 793 791 790 789 789 788 788 788 787 786 786 784 779 769
819 820 815 813 820 815 810 811 811 809 808 806 804 802 799 797 795 793 792 791 788 787 786 786 785 785 785 785 782 780 778 775
813 815 815 814 817 813 811 811 809 806 805 804 803 801 798 796 795 793 792 790 788 786 785 784 782 781 781 780 780 779 775 774
813 813 815 817 815 813 811 808 807 806 804 803 802 800 798 795 793 791 792 790 788 786 784 782 780 778 778 776 775 773 772 769
812 812 814 814 815 813 810 809 807 804 803 802 800 798 797 794 791 788 785 783 784 783 781 780 777 774 773 772 770 768 767 765